THORAD AGENA D DEB, 4986

Orbit data source: Space-Track

THORAD AGENA D DEB, 4986 is space debris in SSO originally from a launch on Wed, 08 Apr 1970 UTC launched from the Air Force Western Test Range (AFWTR). Debris objects in space refer to the collection of defunct objects orbiting the Earth. Examples of debris include non-operational satellites, rocket bodies, and fragments generated from explosions, collisions, or faulty payload assembly.

Loading next visibility...
Identifier
4986, 1970-025HG
Orbit
SSO
Country
Flag of USUS
Related business
Manufacturer
Unknown
Mission
Spacecraft
Bus & Motor
Unknown
Mass
Unknown
Launch date (UTC)
1970-04-08 (56 years ago)
Launch vehicle
Unknown
Launch site
Air Force Western Test Range (AFWTR)
Object type
Payload
Rocket body
Debris
Shape & HBR
Unknown shape, 0.1 m
Radar Cross Section
Small (<0.1 m²)

Expand to show TLE details & history
Last TLE update: 13 hours ago

TLE from 13 hours ago
0 THORAD AGENA D DEB
1 04986U 70025HG  26035.15983973  .00000084  00000-0  22131-3 0  9996
2 04986  99.7695 286.1316 0054557  35.3071 123.4215 13.42912903732763
Epoch: 2026-02-04T03:50Z
TLE epoch observation values (Epoch: 2026-02-04T03:50:10.152Z)
Latitude
20.44335°
Longitude
-82.08003°
Altitude
1,123.484 km
Speed
7.282 km/s
True Right ascension
07h 19m 10s
True Declination
20° 20' 12"
Sunlit
Object was in full shadow at epoch
Visualization orbit readout
Latitude
Unknown
Longitude
Unknown
Altitude
Unknown
Speed
Unknown
Apparent Right ascension
Unknown
Apparent Declination
Unknown
Sunlit
N/A
Visualization observer readout
Local Sidereal Time
18:30:48
Azimuth
Unknown
Elevation
Unknown
Doppler factor
Unknown
Orbital elements
Apogee altitude
1,136.538 km
Perigee altitude
1,054.987 km
Semi-major axis
7,473.899 km
Eccentricity
0.00546
Inclination
99.7695°
RAAN
286.1316°
Arg. of periapsis
35.3071°
True anomaly
123.94134°
Mean anomaly
123.4215°
Eccentric anomaly
123.68162°
Mean motion
3.3591 °/min
Orbital period
107.17 mins
BSTAR
0.00022131
Loading maneuver chart data...
Computing Atmospheric mass density...

Documentation

Showing up to 5 results
|